TimeAST,TemperatureF,Dew PointF,Humidity,Sea Level PressureIn,VisibilityMPH,Wind Direction,Wind SpeedMPH,Gust SpeedMPH,PrecipitationIn,Events,Conditions,WindDirDegrees,DateUTC
12:00 AM,62.6,48.2,59,30.04,3.1,NW,11.5,-,N/A,,Unknown,310,2012-12-26 21:00:00
1:00 AM,62.6,50.0,63,30.04,4.3,NW,12.7,-,N/A,,Unknown,310,2012-12-26 22:00:00
2:00 AM,62.6,50.0,63,30.01,4.3,NW,11.5,-,N/A,,Unknown,310,2012-12-26 23:00:00
3:00 AM,62,51,57,30.03,4,NW,12.7,,,,Widespread Dust,310,2012-12-27 00:00:00
3:00 AM,62.6,50.0,63,30.01,4.3,NW,12.7,24.2,N/A,,Unknown,310,2012-12-27 00:00:00
3:30 AM,62.6,50.0,63,30.01,3.7,WNW,11.5,-,N/A,,Unknown,300,2012-12-27 00:30:00
4:00 AM,62.6,50.0,63,30.01,2.5,WNW,10.4,-,N/A,,Unknown,290,2012-12-27 01:00:00
4:30 AM,62.6,50.0,63,30.01,2.5,WNW,9.2,-,N/A,,Unknown,300,2012-12-27 01:30:00
5:00 AM,62.6,50.0,63,30.01,1.9,WNW,12.7,-,N/A,,Unknown,300,2012-12-27 02:00:00
5:30 AM,62.6,50.0,63,30.04,1.9,WNW,10.4,-,N/A,,Unknown,300,2012-12-27 02:30:00
6:00 AM,62.6,51.8,68,30.04,1.9,WNW,10.4,-,N/A,,Unknown,300,2012-12-27 03:00:00
7:00 AM,60.8,51.8,72,30.06,1.6,West,9.2,-,N/A,,Unknown,280,2012-12-27 04:00:00
8:00 AM,62.6,51.8,68,30.06,2.2,WNW,8.1,-,N/A,,Unknown,290,2012-12-27 05:00:00
9:00 AM,64,54,60,30.11,3,West,9.2,,,,Widespread Dust,280,2012-12-27 06:00:00
9:00 AM,64.4,53.6,68,30.09,3.1,West,9.2,-,N/A,,Unknown,280,2012-12-27 06:00:00
9:30 AM,66.2,53.6,64,30.09,3.7,West,9.2,-,N/A,,Unknown,270,2012-12-27 06:30:00
10:00 AM,68.0,55.4,64,30.09,3.7,WNW,9.2,-,N/A,,Scattered Clouds,290,2012-12-27 07:00:00
10:30 AM,68.0,55.4,64,30.09,3.7,West,6.9,-,N/A,,Mostly Cloudy,270,2012-12-27 07:30:00
11:00 AM,69.8,55.4,60,30.09,3.7,WNW,8.1,-,N/A,,Mostly Cloudy,290,2012-12-27 08:00:00
11:30 AM,69.8,55.4,60,30.06,4.3,WNW,10.4,-,N/A,,Scattered Clouds,300,2012-12-27 08:30:00
12:00 PM,71.6,55.4,57,30.06,5.0,WNW,11.5,-,N/A,,Mostly Cloudy,300,2012-12-27 09:00:00
12:30 PM,71.6,55.4,57,30.04,6.2,NW,9.2,-,N/A,,Scattered Clouds,310,2012-12-27 09:30:00
1:00 PM,71.6,55.4,57,30.04,6.2,NW,11.5,-,N/A,,Scattered Clouds,320,2012-12-27 10:00:00
1:30 PM,71.6,53.6,53,30.01,6.2,NW,10.4,-,N/A,,Scattered Clouds,310,2012-12-27 10:30:00
2:00 PM,71.6,53.6,53,30.01,6.2,NW,11.5,-,N/A,,Scattered Clouds,320,2012-12-27 11:00:00
2:30 PM,71.6,53.6,53,30.01,6.2,NW,11.5,-,N/A,,Partly Cloudy,320,2012-12-27 11:30:00
3:00 PM,72,53,41,30.03,7,NNW,12.7,,,,Scattered Clouds,330,2012-12-27 12:00:00
3:00 PM,71.6,53.6,53,30.01,6.2,NNW,12.7,-,N/A,,Partly Cloudy,330,2012-12-27 12:00:00
3:30 PM,71.6,53.6,53,30.01,6.2,NW,11.5,-,N/A,,Partly Cloudy,320,2012-12-27 12:30:00
4:00 PM,71.6,51.8,50,30.04,6.2,NNW,12.7,-,N/A,,Partly Cloudy,330,2012-12-27 13:00:00
4:30 PM,71.6,53.6,53,30.04,6.2,NNW,11.5,-,N/A,,Partly Cloudy,330,2012-12-27 13:30:00
5:00 PM,71.6,53.6,53,30.04,6.2,NW,10.4,-,N/A,,Partly Cloudy,320,2012-12-27 14:00:00
6:00 PM,69.8,55.4,60,30.06,-9999.0,NW,10.4,-,N/A,,Clear,310,2012-12-27 15:00:00
6:30 PM,69.8,55.4,60,30.06,-9999.0,NW,8.1,-,N/A,,Clear,320,2012-12-27 15:30:00
7:00 PM,68.0,57.2,68,30.06,-9999.0,NW,9.2,-,N/A,,Clear,310,2012-12-27 16:00:00
7:30 PM,68.0,57.2,68,30.06,6.2,NW,9.2,-,N/A,,Scattered Clouds,320,2012-12-27 16:30:00
8:00 PM,68.0,57.2,68,30.06,6.2,NW,10.4,-,N/A,,Partly Cloudy,310,2012-12-27 17:00:00
9:00 PM,68,57,60,30.09,9,NW,8.1,,,,Scattered Clouds,310,2012-12-27 18:00:00
9:00 PM,68.0,57.2,68,30.06,-9999.0,NW,8.1,-,N/A,,Clear,310,2012-12-27 18:00:00
9:30 PM,68.0,57.2,68,30.09,-9999.0,NW,9.2,-,N/A,,Clear,310,2012-12-27 18:30:00
10:00 PM,68.0,57.2,68,30.09,-9999.0,NW,8.1,-,N/A,,Clear,310,2012-12-27 19:00:00
10:30 PM,68.0,57.2,68,30.09,-9999.0,NW,9.2,-,N/A,,Clear,310,2012-12-27 19:30:00
11:00 PM,66.2,57.2,73,30.09,-9999.0,NW,8.1,-,N/A,,Clear,310,2012-12-27 20:00:00
11:30 PM,66.2,57.2,73,30.06,6.2,NW,8.1,-,N/A,,Partly Cloudy,310,2012-12-27 20:30:00